Terminal Aerodrome Forecast
Issued by NWS Wilmington, NC

Home | Current Version | Previous Version | Text Only | Print | Product List | Glossary On
Versions: 1 2 3 4 5 6 7 8 9 10 11 12 13 14 15 16 17 18 19 20 21 22 23 24 25
000
FTUS42 KILM 130700 AAB
TAFFLO
TAF AMD
KFLO 130734Z 1308/1406 00000KT P6SM SCT018
     FM130800 00000KT 4SM BR SCT015
     FM131100 00000KT 2SM BR SCT008
     FM131200 22007KT P6SM SCT020 SCT040=

USA.gov is the U.S. government's official web portal to all federal, state and local government web resources and services.